Weather History for Dickinson, ND

Change the Weather History Date:

Saturday, February 2, 2013

  Actual Average Record
Temperature  
Mean Temperature 28 °F 18 °F  
Max Temperature 35 °F 28 °F 55 °F (1962)
Min Temperature 20 °F 8 °F -44 °F (1917)
Degree Days  
Heating Degree Days 37 47  
Month to date heating degree days 84 94  
Since 1 July heating degree days 4964 5141  
Cooling Degree Days 0 0  
Month to date cooling degree days 0 0  
Year to date cooling degree days 0 0  
Moisture  
Dew Point 25 °F    
Average Humidity 87    
Maximum Humidity 96    
Minimum Humidity 78    
Precipitation  
Precipitation T in 0.00 in 0.05 in (1959)
Month to date precipitation T 0.01  
Year to date precipitation 0.08 0.31  
Sea Level Pressure  
Sea Level Pressure 30.03 in    
Wind  
Wind Speed 17 mph (WNW)    
Max Wind Speed 39 mph    
Max Gust Speed 47 mph    
Visibility 4 miles    
Events Fog , Rain , Snow    
T = Trace of Precipitation, MM = Missing Value Source: NWS Daily Summary

Daily Weather History Graph

Daily Weather History Graph

Search for Another Location

Airport:

Trip Planner

Search our weather history database for the weather conditions in past years. The results will help you decide how hot, cold, wet, or windy it might be!

Date:

Astronomy

Feb. 02, 2013 Rise Set
Actual Time 7:13 AM MST 4:56 PM MST
Civil Twilight 6:41 AM MST 5:28 PM MST
Nautical Twilight 6:05 AM MST 6:05 PM MST
Astronomical Twilight 5:29 AM MST 6:40 PM MST
Moon No Moon Rise 9:56 AM MST (2/2)
Length of Visible Light 10h 47m
Length of Day
9h 42m
Waning Gibbous, 59% of the Moon is Illuminated
Feb 2
Waning Gibbous
Feb 3
Last Quarter
Feb 10
New
Feb 17
First Quarter
Feb 25
Full

Hourly Weather History & Observations

Time (MST) Temp. Windchill Dew Point Humidity Pressure Visibility Wind Dir Wind Speed Gust Speed Precip Events Conditions
12:11 AM 21.2 °F 14.9 °F 19.4 °F 93% 30.00 in 2.5 mi West 4.6 mph - 0.00 in Snow Light Snow
12:19 AM 21.2 °F 16.4 °F 19.4 °F 93% 30.00 in 4.0 mi NW 3.5 mph - 0.00 in Snow Light Snow
12:46 AM 23.0 °F - 19.4 °F 86% 29.99 in 3.0 mi Calm Calm - 0.00 in Snow Light Snow
12:56 AM 21.9 °F - 19.9 °F 92% 30.09 in 5.0 mi Calm Calm - 0.00 in Snow Light Snow
1:19 AM 23.0 °F - 21.2 °F 93% 29.99 in 2.0 mi Calm Calm - 0.00 in Snow Light Snow
1:26 AM 23.0 °F - 21.2 °F 93% 29.99 in 3.0 mi Calm Calm - 0.00 in Snow Light Snow
1:49 AM 23.0 °F - 21.2 °F 93% 29.99 in 2.0 mi Calm Calm - 0.00 in Snow Light Snow
1:56 AM 23.0 °F - 21.0 °F 92% 30.09 in 2.0 mi Calm Calm - 0.00 in Snow Light Snow
2:06 AM 23.0 °F - 21.2 °F 93% 29.98 in 3.0 mi Calm Calm - 0.00 in Snow Light Snow
2:42 AM 24.8 °F - 21.2 °F 86% 29.98 in 4.0 mi Calm Calm - 0.00 in Snow Light Snow
2:56 AM 24.1 °F - 21.9 °F 91% 30.08 in 6.0 mi Calm Calm - 0.00 in   Overcast
3:56 AM 27.0 °F 18.0 °F 24.1 °F 89% 30.06 in 10.0 mi West 9.2 mph - N/A   Overcast
4:11 AM 30.2 °F 20.2 °F 26.6 °F 86% 29.97 in 10.0 mi WNW 12.7 mph - N/A   Overcast
4:56 AM 32.0 °F 22.5 °F 28.0 °F 85% 30.06 in 10.0 mi WNW 12.7 mph - N/A   Overcast
5:39 AM 33.8 °F 23.2 °F 28.4 °F 81% 29.95 in 10.0 mi West 17.3 mph - N/A   Overcast
5:56 AM 33.1 °F 23.4 °F 28.9 °F 85% 30.03 in 10.0 mi West 13.8 mph - N/A   Overcast
6:56 AM 32.0 °F 21.6 °F 28.0 °F 85% 30.03 in 10.0 mi West 15.0 mph - N/A   Mostly Cloudy
7:24 AM 32.0 °F 20.5 °F 28.4 °F 87% 29.95 in 1.5 mi West 18.4 mph - 0.00 in Snow Light Snow
7:33 AM 30.2 °F 18.5 °F 28.4 °F 93% 29.95 in 0.8 mi West 17.3 mph - 0.00 in Snow Light Snow
7:50 AM 30.2 °F 18.1 °F 28.4 °F 93% 29.95 in 0.5 mi West 18.4 mph - 0.00 in Fog , Snow Snow
7:51 AM 30.9 °F 19.1 °F 28.9 °F 92% 30.04 in 0.5 mi West 18.4 mph - 0.00 in Fog , Snow Snow
8:03 AM 32.0 °F 19.8 °F 28.4 °F 87% 29.94 in 0.8 mi West 20.7 mph - 0.00 in Snow Light Snow
8:09 AM 32.0 °F 20.1 °F 28.4 °F 87% 29.94 in 1.0 mi West 19.6 mph - 0.00 in Snow Light Snow
8:17 AM 32.0 °F 19.2 °F 30.2 °F 93% 29.94 in 1.5 mi West 23.0 mph 28.8 mph 0.00 in Snow Light Snow
8:26 AM 32.0 °F 19.5 °F 30.2 °F 93% 29.94 in 3.0 mi West 21.9 mph - 0.00 in Snow Light Snow
8:52 AM 32.0 °F 19.5 °F 28.4 °F 87% 29.94 in 3.0 mi West 21.9 mph 28.8 mph 0.00 in Snow Light Snow
8:56 AM 32.0 °F 19.2 °F 28.9 °F 88% 30.03 in 5.0 mi West 23.0 mph 28.8 mph 0.00 in Snow Light Snow
9:35 AM 33.8 °F 20.5 °F 28.4 °F 81% 29.94 in 1.8 mi West 27.6 mph 32.2 mph 0.00 in Snow Light Snow
9:56 AM 33.1 °F 20.1 °F 30.0 °F 89% 30.03 in 1.8 mi West 25.3 mph 33.4 mph 0.00 in Snow Light Snow
10:01 AM 33.8 °F 21.0 °F 30.2 °F 87% 29.94 in 3.0 mi West 25.3 mph 33.4 mph 0.00 in Snow Light Snow
10:11 AM 33.8 °F 21.3 °F 30.2 °F 87% 29.94 in 8.0 mi WNW 24.2 mph - 0.00 in   Overcast
10:19 AM 33.8 °F 20.8 °F 28.4 °F 81% 29.95 in 10.0 mi WNW 26.5 mph 34.5 mph 0.00 in   Overcast
10:39 AM 35.6 °F 21.9 °F 28.4 °F 75% 29.96 in 1.8 mi NW 33.4 mph 40.3 mph 0.00 in   Overcast
10:56 AM 34.0 °F 20.3 °F 28.9 °F 82% 30.06 in 1.0 mi NW 29.9 mph 40.3 mph 0.00 in   Overcast
11:03 AM 35.6 °F 22.7 °F 28.4 °F 75% 29.97 in 2.0 mi NW 28.8 mph 39.1 mph 0.00 in   Overcast
11:16 AM 35.6 °F 22.7 °F 28.4 °F 75% 29.97 in 5.0 mi WNW 28.8 mph 34.5 mph 0.00 in   Overcast
11:25 AM 33.8 °F 19.9 °F 28.4 °F 81% 29.97 in 1.8 mi NW 31.1 mph 41.4 mph 0.00 in Rain Light Rain
11:36 AM 33.8 °F 20.5 °F 28.4 °F 81% 29.98 in 2.0 mi NW 27.6 mph 41.4 mph 0.00 in Rain Light Rain
11:44 AM 33.8 °F 21.3 °F 28.4 °F 81% 29.98 in 5.0 mi NW 24.2 mph 33.4 mph 0.00 in   Overcast
11:56 AM 33.1 °F 19.6 °F 28.0 °F 82% 30.08 in 6.0 mi NW 27.6 mph 35.7 mph 0.00 in Rain Light Rain
12:25 PM 33.8 °F 18.8 °F 28.4 °F 81% 30.00 in 1.5 mi NW 36.8 mph 47.2 mph 0.00 in   Overcast
12:36 PM 33.8 °F 19.0 °F 26.6 °F 75% 30.00 in 0.5 mi WNW 35.7 mph 46.0 mph 0.00 in   Overcast
12:56 PM 32.0 °F 16.3 °F 26.1 °F 79% 30.11 in 0.8 mi NW 36.8 mph 46.0 mph 0.00 in   Mostly Cloudy
1:13 PM 30.2 °F 14.9 °F 26.6 °F 86% 30.02 in 1.0 mi NW 31.1 mph 46.0 mph 0.00 in   Mostly Cloudy
1:34 PM 30.2 °F 14.5 °F 24.8 °F 80% 30.02 in 0.8 mi NW 33.4 mph 46.0 mph 0.00 in   Overcast
1:43 PM 30.2 °F 14.9 °F 24.8 °F 80% 30.03 in 1.2 mi WNW 31.1 mph 46.0 mph 0.00 in   Overcast
1:56 PM 30.0 °F 14.5 °F 24.1 °F 79% 30.14 in 2.0 mi NW 32.2 mph 41.4 mph 0.00 in   Overcast
2:06 PM 30.2 °F 16.8 °F 24.8 °F 80% 30.04 in 1.5 mi NW 23.0 mph 41.4 mph 0.00 in   Overcast
2:12 PM 30.2 °F 15.9 °F 24.8 °F 80% 30.04 in 3.0 mi NW 26.5 mph 35.7 mph 0.00 in   Overcast
2:56 PM 28.9 °F 13.5 °F 24.1 °F 82% 30.16 in 3.0 mi NW 29.9 mph 35.7 mph 0.00 in   Overcast
3:56 PM 28.0 °F 13.6 °F 23.0 °F 81% 30.19 in 5.0 mi NW 24.2 mph 38.0 mph 0.00 in   Overcast
5:27 PM 24.8 °F 11.5 °F 19.4 °F 80% 30.10 in 10.0 mi NW 17.3 mph - N/A   Scattered Clouds
5:56 PM 23.0 °F 11.1 °F 19.0 °F 85% 30.20 in 10.0 mi NW 12.7 mph - N/A   Clear
6:56 PM 21.0 °F 8.1 °F 17.1 °F 85% 30.19 in 10.0 mi WNW 13.8 mph - N/A   Mostly Cloudy
7:56 PM 21.9 °F 9.8 °F 18.0 °F 85% 30.20 in 10.0 mi WNW 12.7 mph - N/A   Overcast
8:56 PM 24.1 °F 15.2 °F 19.9 °F 84% 30.18 in 10.0 mi WNW 8.1 mph - N/A   Overcast
9:56 PM 24.1 °F 16.0 °F 21.0 °F 88% 30.16 in 10.0 mi West 6.9 mph - N/A   Overcast
10:56 PM 26.1 °F 18.4 °F 21.0 °F 81% 30.14 in 10.0 mi WSW 6.9 mph - N/A   Overcast
11:56 PM 26.1 °F 16.8 °F 19.9 °F 78% 30.12 in 10.0 mi West 9.2 mph - N/A   Overcast